Time,TemperatureF,DewpointF,PressureIn,WindDirection,WindDirectionDegrees,WindSpeedMPH,WindSpeedGustMPH,Humidity,HourlyPrecipIn,Conditions,Clouds,dailyrainin,SolarRadiationWatts/m^2,SoftwareType,DateUTC
2013-04-05 00:02:00,48.2,20.4,30.09,NNE,22,2.4,4.6,33,0.00,CLR,SCT,0.00,0.0,WeatherDisplay:10.37,2013-04-05 05:02:00,
2013-04-05 00:07:00,48.0,20.9,30.09,NNE,22,2.0,3.5,34,0.00,CLR,SCT,0.00,0.0,WeatherDisplay:10.37,2013-04-05 05:07:00,
2013-04-05 00:12:00,47.7,20.6,30.09,ENE,68,1.1,3.5,34,0.00,CLR,SCT,0.00,0.0,WeatherDisplay:10.37,2013-04-05 05:12:00,
2013-04-05 00:17:00,47.5,20.5,30.09,ESE,112,1.4,2.9,34,0.00,CLR,SCT,0.00,0.0,WeatherDisplay:10.37,2013-04-05 05:17:00,
2013-04-05 00:22:00,47.3,20.3,30.09,ENE,68,1.6,2.6,34,0.00,CLR,SCT,0.00,0.0,WeatherDisplay:10.37,2013-04-05 05:22:00,
2013-04-05 00:27:00,46.9,20.0,30.09,ENE,68,1.1,1.6,34,0.00,CLR,SCT,0.00,0.0,WeatherDisplay:10.37,2013-04-05 05:27:00,
2013-04-05 00:32:00,46.8,19.8,30.09,East,90,1.6,3.5,34,0.00,CLR,SCT,0.00,0.0,WeatherDisplay:10.37,2013-04-05 05:32:00,
2013-04-05 00:37:00,46.4,20.9,30.09,East,90,1.6,2.3,36,0.00,CLR,SCT,0.00,0.0,WeatherDisplay:10.37,2013-04-05 05:37:00,
2013-04-05 00:43:00,46.2,20.7,30.09,East,90,1.4,3.6,36,0.00,CLR,SCT,0.00,0.0,WeatherDisplay:10.37,2013-04-05 05:43:00,
2013-04-05 00:48:00,46.0,21.2,30.09,ENE,68,3.6,3.8,37,0.00,CLR,SCT,0.00,0.0,WeatherDisplay:10.37,2013-04-05 05:48:00,
2013-04-05 00:53:00,46.0,21.8,30.09,NE,45,2.6,3.5,38,0.00,CLR,SCT,0.00,0.0,WeatherDisplay:10.37,2013-04-05 05:53:00,
2013-04-05 00:58:00,46.0,21.8,30.09,NNE,22,2.9,4.6,38,0.00,CLR,SCT,0.00,0.0,WeatherDisplay:10.37,2013-04-05 05:58:00,
2013-04-05 01:03:00,45.9,21.7,30.12,ENE,68,3.3,4.6,38,0.00,CLR,SCT,0.00,0.0,WeatherDisplay:10.37,2013-04-05 06:03:00,
2013-04-05 01:08:00,45.7,21.5,30.12,ESE,112,2.6,4.6,38,0.00,CLR,SCT,0.00,0.0,WeatherDisplay:10.37,2013-04-05 06:08:00,
2013-04-05 01:13:00,45.5,21.3,30.12,East,90,3.1,4.7,38,0.00,CLR,SCT,0.00,0.0,WeatherDisplay:10.37,2013-04-05 06:13:00,
2013-04-05 01:18:00,45.3,21.8,30.09,ENE,68,4.0,6.9,39,0.00,CLR,SCT,0.00,0.0,WeatherDisplay:10.37,2013-04-05 06:18:00,
2013-04-05 01:23:00,45.1,21.6,30.09,ENE,68,3.6,4.9,39,0.00,CLR,SCT,0.00,0.0,WeatherDisplay:10.37,2013-04-05 06:23:00,
2013-04-05 01:29:00,45.0,21.5,30.09,NNE,22,2.2,4.6,39,0.00,CLR,SCT,0.00,0.0,WeatherDisplay:10.37,2013-04-05 06:29:00,
2013-04-05 01:34:00,44.8,21.3,30.12,ESE,112,3.6,4.6,39,0.00,CLR,SCT,0.00,0.0,WeatherDisplay:10.37,2013-04-05 06:34:00,
2013-04-05 01:39:00,44.6,21.1,30.12,East,90,2.6,4.6,39,0.00,CLR,SCT,0.00,0.0,WeatherDisplay:10.37,2013-04-05 06:39:00,
2013-04-05 01:44:00,44.2,21.4,30.12,East,90,2.6,4.6,40,0.00,CLR,SCT,0.00,0.0,WeatherDisplay:10.37,2013-04-05 06:44:00,
2013-04-05 01:49:00,44.2,21.4,30.12,ESE,112,3.1,5.8,40,0.00,CLR,SCT,0.00,0.0,WeatherDisplay:10.37,2013-04-05 06:49:00,
2013-04-05 01:54:00,44.1,21.3,30.12,ENE,68,3.1,4.3,40,0.00,CLR,SCT,0.00,0.0,WeatherDisplay:10.37,2013-04-05 06:54:00,
2013-04-05 01:59:00,43.9,21.1,30.12,ENE,68,2.0,4.6,40,0.00,CLR,SCT,0.00,0.0,WeatherDisplay:10.37,2013-04-05 06:59:00,
2013-04-05 02:05:00,43.5,20.8,30.12,ENE,68,3.3,4.6,40,0.00,CLR,SCT,0.00,0.0,WeatherDisplay:10.37,2013-04-05 07:05:00,
2013-04-05 02:10:00,43.3,20.6,30.12,ENE,68,3.1,3.5,40,0.00,CLR,SCT,0.00,0.0,WeatherDisplay:10.37,2013-04-05 07:10:00,
2013-04-05 02:15:00,43.2,21.0,30.12,East,88,3.0,6.0,41,0.00,CLR,SCT,0.00,0.0,WeatherDisplay:10.37,2013-04-05 07:15:00,
2013-04-05 02:20:00,43.0,20.9,30.12,East,90,2.9,4.3,41,0.00,CLR,SCT,0.00,0.0,WeatherDisplay:10.37,2013-04-05 07:20:00,
2013-04-05 02:25:00,42.8,21.3,30.12,East,90,3.6,5.8,42,0.00,CLR,SCT,0.00,0.0,WeatherDisplay:10.37,2013-04-05 07:25:00,
2013-04-05 02:30:00,42.8,21.8,30.12,ENE,68,2.9,3.6,43,0.00,CLR,SCT,0.00,0.0,WeatherDisplay:10.37,2013-04-05 07:30:00,
2013-04-05 02:36:00,42.4,21.5,30.12,ESE,112,3.6,5.8,43,0.00,CLR,SCT,0.00,0.0,WeatherDisplay:10.37,2013-04-05 07:36:00,
2013-04-05 02:41:00,42.3,21.9,30.12,ENE,68,2.4,5.8,44,0.00,CLR,SCT,0.00,0.0,WeatherDisplay:10.37,2013-04-05 07:41:00,
2013-04-05 02:46:00,42.1,21.7,30.12,ENE,68,2.9,5.9,44,0.00,CLR,SCT,0.00,0.0,WeatherDisplay:10.37,2013-04-05 07:46:00,
2013-04-05 02:51:00,41.9,22.1,30.12,ENE,68,2.4,3.5,45,0.00,CLR,SCT,0.00,0.0,WeatherDisplay:10.37,2013-04-05 07:51:00,
2013-04-05 02:56:00,41.7,21.9,30.12,ESE,112,2.4,5.8,45,0.00,CLR,SCT,0.00,0.0,WeatherDisplay:10.37,2013-04-05 07:56:00,
2013-04-05 03:01:00,41.5,21.8,30.12,ESE,112,3.1,4.6,45,0.00,CLR,SCT,0.00,0.0,WeatherDisplay:10.37,2013-04-05 08:01:00,
2013-04-05 03:07:00,41.2,21.4,30.12,East,90,2.0,3.8,45,0.00,CLR,SCT,0.00,0.0,WeatherDisplay:10.37,2013-04-05 08:07:00,
2013-04-05 03:12:00,41.0,21.3,30.12,ENE,68,2.4,3.5,45,0.00,CLR,SCT,0.00,0.0,WeatherDisplay:10.37,2013-04-05 08:12:00,
2013-04-05 03:17:00,40.8,22.1,30.12,ESE,112,2.6,4.3,47,0.00,CLR,SCT,0.00,0.0,WeatherDisplay:10.37,2013-04-05 08:17:00,
2013-04-05 03:22:00,40.8,22.6,30.12,ESE,112,2.2,3.5,48,0.00,CLR,SCT,0.00,0.0,WeatherDisplay:10.37,2013-04-05 08:22:00,
2013-04-05 03:27:00,40.6,22.9,30.12,ESE,112,2.6,3.5,49,0.00,CLR,SCT,0.00,0.0,WeatherDisplay:10.37,2013-04-05 08:27:00,
2013-04-05 03:32:00,40.5,22.8,30.12,ENE,68,2.0,2.9,49,0.00,CLR,SCT,0.00,0.0,WeatherDisplay:10.37,2013-04-05 08:32:00,
2013-04-05 03:37:00,40.3,22.6,30.12,ESE,112,2.9,4.6,49,0.00,CLR,SCT,0.00,0.0,WeatherDisplay:10.37,2013-04-05 08:37:00,
2013-04-05 03:42:00,40.3,22.6,30.12,East,90,2.0,3.5,49,0.00,CLR,SCT,0.00,0.0,WeatherDisplay:10.37,2013-04-05 08:42:00,
2013-04-05 03:47:00,40.1,22.9,30.12,East,90,2.9,5.8,50,0.00,CLR,SCT,0.00,0.0,WeatherDisplay:10.37,2013-04-05 08:47:00,
2013-04-05 03:52:00,39.9,22.8,30.12,East,90,3.6,4.9,50,0.00,CLR,SCT,0.00,0.0,WeatherDisplay:10.37,2013-04-05 08:52:00,
2013-04-05 03:58:00,39.7,22.1,30.12,East,90,2.4,4.9,49,0.00,CLR,SCT,0.00,0.0,WeatherDisplay:10.37,2013-04-05 08:58:00,
2013-04-05 04:03:00,39.6,22.4,30.12,ENE,68,2.4,3.5,50,0.00,CLR,SCT,0.00,0.0,WeatherDisplay:10.37,2013-04-05 09:03:00,
2013-04-05 04:08:00,39.4,22.3,30.12,East,90,2.4,3.8,50,0.00,CLR,SCT,0.00,0.0,WeatherDisplay:10.37,2013-04-05 09:08:00,
2013-04-05 04:13:00,39.2,22.1,30.12,East,90,2.2,3.8,50,0.00,CLR,SCT,0.00,0.0,WeatherDisplay:10.37,2013-04-05 09:13:00,
2013-04-05 04:18:00,39.0,22.4,30.12,East,90,2.9,5.8,51,0.00,CLR,SCT,0.00,0.0,WeatherDisplay:10.37,2013-04-05 09:18:00,
2013-04-05 04:23:00,38.8,22.2,30.12,East,90,3.1,3.5,51,0.00,CLR,SCT,0.00,0.0,WeatherDisplay:10.37,2013-04-05 09:23:00,
2013-04-05 04:28:00,38.8,22.7,30.12,ESE,112,2.2,3.5,52,0.00,CLR,SCT,0.00,0.0,WeatherDisplay:10.37,2013-04-05 09:28:00,
2013-04-05 04:33:00,38.7,22.5,30.12,East,90,2.4,3.5,52,0.00,CLR,SCT,0.00,0.0,WeatherDisplay:10.37,2013-04-05 09:33:00,
2013-04-05 04:38:00,38.5,22.4,30.12,East,90,2.0,2.3,52,0.00,CLR,SCT,0.00,0.0,WeatherDisplay:10.37,2013-04-05 09:38:00,
2013-04-05 04:43:00,38.3,22.6,30.12,ENE,68,2.2,4.0,53,0.00,CLR,SCT,0.00,0.0,WeatherDisplay:10.37,2013-04-05 09:43:00,
2013-04-05 04:49:00,38.1,22.5,30.12,ESE,112,3.3,5.8,53,0.00,CLR,SCT,0.00,0.0,WeatherDisplay:10.37,2013-04-05 09:49:00,
2013-04-05 04:54:00,37.9,22.8,30.12,ESE,112,2.9,5.4,54,0.00,CLR,SCT,0.00,0.0,WeatherDisplay:10.37,2013-04-05 09:54:00,
2013-04-05 04:59:00,37.9,23.2,30.12,ESE,112,4.3,5.4,55,0.00,CLR,SCT,0.00,0.0,WeatherDisplay:10.37,2013-04-05 09:59:00,
2013-04-05 05:05:00,37.8,23.0,30.12,East,90,4.0,5.8,55,0.00,CLR,SCT,0.00,0.0,WeatherDisplay:10.37,2013-04-05 10:05:00,
2013-04-05 05:10:00,37.6,22.9,30.12,ESE,112,2.9,3.8,55,0.00,CLR,SCT,0.00,0.0,WeatherDisplay:10.37,2013-04-05 10:10:00,
2013-04-05 05:15:00,37.4,22.7,30.12,East,90,3.6,5.8,55,0.00,CLR,SCT,0.00,0.0,WeatherDisplay:10.37,2013-04-05 10:15:00,
2013-04-05 05:20:00,37.2,22.9,30.12,East,90,3.1,3.5,56,0.00,CLR,SCT,0.00,0.0,WeatherDisplay:10.37,2013-04-05 10:20:00,
2013-04-05 05:25:00,37.0,22.8,30.12,ESE,112,3.1,4.9,56,0.00,CLR,SCT,0.00,0.0,WeatherDisplay:10.37,2013-04-05 10:25:00,
2013-04-05 05:30:00,37.0,22.8,30.12,East,90,2.9,5.8,56,0.00,CLR,SCT,0.00,0.0,WeatherDisplay:10.37,2013-04-05 10:30:00,
2013-04-05 05:36:00,37.0,23.2,30.12,ESE,112,2.9,4.0,57,0.00,CLR,SCT,0.00,0.0,WeatherDisplay:10.37,2013-04-05 10:36:00,
2013-04-05 05:41:00,36.9,23.0,30.12,ESE,112,2.9,4.6,57,0.00,CLR,SCT,0.00,0.0,WeatherDisplay:10.37,2013-04-05 10:41:00,
2013-04-05 05:46:00,36.7,23.7,30.12,ESE,112,3.1,3.5,59,0.00,CLR,SCT,0.00,0.0,WeatherDisplay:10.37,2013-04-05 10:46:00,
2013-04-05 05:52:00,36.5,22.7,30.12,ENE,68,2.9,4.3,57,0.00,CLR,SCT,0.00,0.0,WeatherDisplay:10.37,2013-04-05 10:52:00,
2013-04-05 05:57:00,36.3,22.5,30.12,East,90,2.0,2.3,57,0.00,CLR,SCT,0.00,0.0,WeatherDisplay:10.37,2013-04-05 10:57:00,
2013-04-05 06:02:00,36.1,22.4,30.12,East,90,2.0,3.5,57,0.00,CLR,SCT,0.00,0.0,WeatherDisplay:10.37,2013-04-05 11:02:00,
2013-04-05 06:07:00,36.0,22.2,30.12,ESE,112,2.2,2.9,57,0.00,CLR,SCT,0.00,0.0,WeatherDisplay:10.37,2013-04-05 11:07:00,
2013-04-05 06:12:00,35.8,22.4,30.12,ENE,68,2.9,4.6,58,0.00,CLR,SCT,0.00,0.0,WeatherDisplay:10.37,2013-04-05 11:12:00,
2013-04-05 06:17:00,35.8,22.8,30.12,East,90,3.3,7.1,59,0.00,CLR,SCT,0.00,0.0,WeatherDisplay:10.37,2013-04-05 11:17:00,
2013-04-05 06:22:00,35.8,23.2,30.12,ENE,68,3.6,4.9,60,0.00,CLR,SCT,0.00,0.0,WeatherDisplay:10.37,2013-04-05 11:22:00,
2013-04-05 06:27:00,35.8,23.6,30.12,ESE,112,3.6,6.0,61,0.00,CLR,SCT,0.00,0.0,WeatherDisplay:10.37,2013-04-05 11:27:00,
2013-04-05 06:32:00,35.8,23.6,30.12,East,90,2.6,3.5,61,0.00,CLR,SCT,0.00,0.0,WeatherDisplay:10.37,2013-04-05 11:32:00,
2013-04-05 06:37:00,35.6,23.5,30.12,ENE,68,3.1,4.6,61,0.00,CLR,SCT,0.00,0.0,WeatherDisplay:10.37,2013-04-05 11:37:00,
2013-04-05 06:42:00,35.6,23.5,30.12,ENE,68,2.4,5.8,61,0.00,CLR,SCT,0.00,0.0,WeatherDisplay:10.37,2013-04-05 11:42:00,
2013-04-05 06:47:00,35.4,23.3,30.12,ESE,112,3.1,4.3,61,0.00,CLR,SCT,0.00,0.0,WeatherDisplay:10.37,2013-04-05 11:47:00,
2013-04-05 06:53:00,35.4,23.3,30.12,ESE,112,2.2,2.9,61,0.00,CLR,SCT,0.00,0.0,WeatherDisplay:10.37,2013-04-05 11:53:00,
2013-04-05 06:58:00,35.2,22.7,30.12,ESE,112,2.0,2.4,60,0.00,CLR,SCT,0.00,0.0,WeatherDisplay:10.37,2013-04-05 11:58:00,
2013-04-05 07:03:00,35.1,23.0,30.12,ESE,112,3.1,3.1,61,0.00,CLR,SCT,0.00,0.0,WeatherDisplay:10.37,2013-04-05 12:03:00,
2013-04-05 07:08:00,35.1,23.3,30.12,ENE,68,3.6,5.8,62,0.00,CLR,SCT,0.00,0.0,WeatherDisplay:10.37,2013-04-05 12:08:00,
2013-04-05 07:14:00,35.1,24.1,30.12,ESE,112,4.5,6.9,64,0.00,CLR,SCT,0.00,0.0,WeatherDisplay:10.37,2013-04-05 12:14:00,
2013-04-05 07:19:00,35.2,24.3,30.12,ENE,68,5.4,6.9,64,0.00,CLR,SCT,0.00,0.0,WeatherDisplay:10.37,2013-04-05 12:19:00,
2013-04-05 07:24:00,35.2,24.3,30.12,ESE,112,4.7,5.9,64,0.00,CLR,SCT,0.00,0.0,WeatherDisplay:10.37,2013-04-05 12:24:00,
2013-04-05 07:29:00,35.2,24.3,30.12,ESE,112,4.5,5.8,64,0.00,CLR,SCT,0.00,0.0,WeatherDisplay:10.37,2013-04-05 12:29:00,
2013-04-05 07:35:00,35.4,24.8,30.12,ESE,112,4.7,6.0,65,0.00,CLR,SCT,0.00,0.0,WeatherDisplay:10.37,2013-04-05 12:35:00,
2013-04-05 07:40:00,35.4,24.8,30.12,ENE,68,3.6,6.2,65,0.00,CLR,SCT,0.00,0.0,WeatherDisplay:10.37,2013-04-05 12:40:00,
2013-04-05 07:45:00,35.4,24.8,30.12,ESE,112,4.0,5.8,65,0.00,CLR,SCT,0.00,0.0,WeatherDisplay:10.37,2013-04-05 12:45:00,
2013-04-05 07:50:00,35.6,25.0,30.12,ESE,112,4.0,5.8,65,0.00,CLR,SCT,0.00,0.0,WeatherDisplay:10.37,2013-04-05 12:50:00,
2013-04-05 07:55:00,35.8,25.2,30.12,ESE,112,4.3,5.8,65,0.00,OVC,SCT,0.00,0.0,WeatherDisplay:10.37,2013-04-05 12:55:00,
2013-04-05 08:01:00,36.0,25.3,30.09,East,90,4.9,8.1,65,0.00,OVC,SCT,0.00,0.0,WeatherDisplay:10.37,2013-04-05 13:01:00,
2013-04-05 08:06:00,36.0,25.3,30.09,ESE,112,5.9,9.2,65,0.00,OVC,SCT,0.00,0.0,WeatherDisplay:10.37,2013-04-05 13:06:00,
2013-04-05 08:11:00,36.1,25.1,30.09,ESE,112,4.5,6.9,64,0.00,OVC,SCT,0.00,0.0,WeatherDisplay:10.37,2013-04-05 13:11:00,
2013-04-05 08:17:00,36.3,25.7,30.12,ESE,112,6.4,9.2,65,0.00,OVC,SCT,0.00,0.0,WeatherDisplay:10.37,2013-04-05 13:17:00,
2013-04-05 08:22:00,36.7,26.0,30.12,ESE,112,3.8,5.4,65,0.00,OVC,SCT,0.00,0.0,WeatherDisplay:10.37,2013-04-05 13:22:00,
2013-04-05 08:27:00,37.2,26.2,30.12,SSE,158,4.0,6.9,64,0.00,OVC,SCT,0.00,0.0,WeatherDisplay:10.37,2013-04-05 13:27:00,
2013-04-05 08:32:00,37.6,26.1,30.12,ESE,112,4.3,5.8,63,0.00,OVC,SCT,0.00,0.0,WeatherDisplay:10.37,2013-04-05 13:32:00,
2013-04-05 08:37:00,38.1,25.8,30.12,ENE,68,4.0,6.9,61,0.00,OVC,SCT,0.00,0.0,WeatherDisplay:10.37,2013-04-05 13:37:00,
2013-04-05 08:42:00,38.5,25.0,30.12,ESE,112,6.2,10.4,58,0.00,OVC,SCT,0.00,0.0,WeatherDisplay:10.37,2013-04-05 13:42:00,
2013-04-05 08:48:00,38.5,24.6,30.12,South,180,6.7,6.9,57,0.00,OVC,SCT,0.00,0.0,WeatherDisplay:10.37,2013-04-05 13:48:00,
2013-04-05 08:53:00,38.7,24.7,30.12,ESE,112,4.3,5.8,57,0.00,OVC,SCT,0.00,0.0,WeatherDisplay:10.37,2013-04-05 13:53:00,
2013-04-05 08:58:00,39.2,25.2,30.12,ESE,112,5.6,6.9,57,0.00,OVC,SCT,0.00,0.0,WeatherDisplay:10.37,2013-04-05 13:58:00,
2013-04-05 09:03:00,39.6,25.1,30.12,ESE,112,5.9,6.9,56,0.00,OVC,SCT,0.00,0.0,WeatherDisplay:10.37,2013-04-05 14:03:00,
2013-04-05 09:08:00,40.1,25.2,30.12,ESE,112,6.7,12.3,55,0.00,OVC,SCT,0.00,0.0,WeatherDisplay:10.37,2013-04-05 14:08:00,
2013-04-05 09:13:00,40.6,25.3,30.12,NNE,22,4.3,6.9,54,0.00,OVC,SCT,0.00,0.0,WeatherDisplay:10.37,2013-04-05 14:13:00,
2013-04-05 09:18:00,41.0,25.2,30.12,SE,135,5.4,9.2,53,0.00,OVC,SCT,0.00,0.0,WeatherDisplay:10.37,2013-04-05 14:18:00,
2013-04-05 09:23:00,41.4,25.0,30.12,East,90,6.7,9.2,52,0.00,OVC,SCT,0.00,0.0,WeatherDisplay:10.37,2013-04-05 14:23:00,
2013-04-05 09:29:00,41.7,24.9,30.12,ESE,112,5.6,9.2,51,0.00,OVC,SCT,0.00,0.0,WeatherDisplay:10.37,2013-04-05 14:29:00,
2013-04-05 09:35:00,41.7,24.4,30.12,East,90,4.0,6.2,50,0.00,OVC,SCT,0.00,0.0,WeatherDisplay:10.37,2013-04-05 14:35:00,
2013-04-05 09:40:00,41.7,24.4,30.12,ESE,112,6.2,9.2,50,0.00,OVC,SCT,0.00,0.0,WeatherDisplay:10.37,2013-04-05 14:40:00,
2013-04-05 09:45:00,42.3,24.9,30.12,ESE,112,4.0,8.5,50,0.00,OVC,SCT,0.00,0.0,WeatherDisplay:10.37,2013-04-05 14:45:00,
2013-04-05 09:50:00,43.3,25.9,30.12,ESE,112,6.4,7.6,50,0.00,OVC,SCT,0.00,100.0,WeatherDisplay:10.37,2013-04-05 14:50:00,
2013-04-05 09:55:00,44.1,26.1,30.12,ESE,112,6.2,10.4,49,0.00,OVC,SCT,0.00,100.0,WeatherDisplay:10.37,2013-04-05 14:55:00,
2013-04-05 10:00:00,44.1,25.6,30.12,ESE,112,6.0,8.1,48,0.00,OVC,SCT,0.00,0.0,WeatherDisplay:10.37,2013-04-05 15:00:00,
2013-04-05 10:05:00,44.1,25.1,30.12,SSE,158,5.9,9.8,47,0.00,OVC,SCT,0.00,0.0,WeatherDisplay:10.37,2013-04-05 15:05:00,
2013-04-05 10:10:00,43.7,24.2,30.12,SSE,158,6.2,8.7,46,0.00,OVC,SCT,0.00,0.0,WeatherDisplay:10.37,2013-04-05 15:10:00,
2013-04-05 10:16:00,43.5,24.1,30.12,ESE,112,6.7,10.0,46,0.00,OVC,SCT,0.00,100.0,WeatherDisplay:10.37,2013-04-05 15:16:00,
2013-04-05 10:21:00,44.1,25.1,30.12,ESE,112,6.2,7.6,47,0.00,OVC,SCT,0.00,100.0,WeatherDisplay:10.37,2013-04-05 15:21:00,
2013-04-05 10:26:00,44.4,25.4,30.12,ESE,112,6.7,9.2,47,0.00,OVC,SCT,0.00,0.0,WeatherDisplay:10.37,2013-04-05 15:26:00,
2013-04-05 10:31:00,45.3,26.8,30.12,ESE,112,6.0,9.7,48,0.00,OVC,SCT,0.00,100.0,WeatherDisplay:10.37,2013-04-05 15:31:00,
2013-04-05 10:36:00,46.0,25.9,30.12,SE,135,7.4,13.2,45,0.00,OVC,SCT,0.00,100.0,WeatherDisplay:10.37,2013-04-05 15:36:00,
2013-04-05 10:41:00,46.4,25.6,30.12,SSE,158,5.9,10.4,44,0.00,OVC,SCT,0.00,100.0,WeatherDisplay:10.37,2013-04-05 15:41:00,
2013-04-05 10:47:00,46.8,26.0,30.09,ESE,112,5.4,8.5,44,0.00,OVC,SCT,0.00,200.0,WeatherDisplay:10.37,2013-04-05 15:47:00,
2013-04-05 10:52:00,47.7,26.2,30.09,ESE,112,6.4,8.1,43,0.00,OVC,SCT,0.00,100.0,WeatherDisplay:10.37,2013-04-05 15:52:00,
2013-04-05 10:57:00,48.4,25.7,30.09,ESE,112,6.0,10.4,41,0.00,OVC,SCT,0.00,200.0,WeatherDisplay:10.37,2013-04-05 15:57:00,
2013-04-05 11:02:00,48.7,25.5,30.09,SSW,202,7.1,12.8,40,0.00,OVC,SCT,0.00,200.0,WeatherDisplay:10.37,2013-04-05 16:02:00,
2013-04-05 11:07:00,49.3,25.3,30.09,East,90,11.4,15.4,39,0.00,OVC,SCT,0.00,200.0,WeatherDisplay:10.37,2013-04-05 16:07:00,
2013-04-05 11:12:00,49.6,25.7,30.09,SSE,158,8.1,10.4,39,0.00,OVC,SCT,0.00,100.0,WeatherDisplay:10.37,2013-04-05 16:12:00,
2013-04-05 11:17:00,49.8,25.8,30.06,ESE,112,9.0,12.7,39,0.00,OVC,SCT,0.00,200.0,WeatherDisplay:10.37,2013-04-05 16:17:00,
2013-04-05 11:23:00,50.2,25.5,30.06,ENE,68,8.7,10.4,38,0.00,OVC,SCT,0.00,100.0,WeatherDisplay:10.37,2013-04-05 16:23:00,
2013-04-05 11:28:00,50.5,25.8,30.06,ENE,68,6.2,10.7,38,0.00,OVC,SCT,0.00,200.0,WeatherDisplay:10.37,2013-04-05 16:28:00,
2013-04-05 11:33:00,51.3,26.5,30.03,SSE,158,7.4,10.4,38,0.00,OVC,SCT,0.00,200.0,WeatherDisplay:10.37,2013-04-05 16:33:00,
2013-04-05 11:38:00,51.6,26.8,30.03,SE,135,9.7,12.7,38,0.00,OVC,SCT,0.00,200.0,WeatherDisplay:10.37,2013-04-05 16:38:00,
2013-04-05 11:43:00,52.3,26.8,30.03,SSE,158,6.0,9.2,37,0.00,OVC,SCT,0.00,200.0,WeatherDisplay:10.37,2013-04-05 16:43:00,
2013-04-05 11:49:00,53.1,27.4,30.06,East,90,6.7,9.8,37,0.00,OVC,SCT,0.00,300.0,WeatherDisplay:10.37,2013-04-05 16:49:00,
2013-04-05 11:54:00,53.2,27.6,30.06,ESE,112,7.1,11.5,37,0.00,OVC,SCT,0.00,300.0,WeatherDisplay:10.37,2013-04-05 16:54:00,
2013-04-05 11:59:00,53.8,27.4,30.06,ESE,112,6.2,12.7,36,0.00,OVC,SCT,0.00,200.0,WeatherDisplay:10.37,2013-04-05 16:59:00,
2013-04-05 12:04:00,54.0,27.6,30.06,ESE,112,8.5,12.7,36,0.00,OVC,SCT,0.00,100.0,WeatherDisplay:10.37,2013-04-05 17:04:00,
2013-04-05 12:10:00,54.3,27.9,30.06,East,90,6.7,10.5,36,0.00,OVC,SCT,0.00,200.0,WeatherDisplay:10.37,2013-04-05 17:10:00,
2013-04-05 12:15:00,54.9,28.4,30.06,ESE,121,7.0,13.0,36,0.00,OVC,SCT,0.00,300.0,WeatherDisplay:10.37,2013-04-05 17:15:00,
2013-04-05 12:20:00,55.6,29.0,30.06,ESE,112,5.4,10.4,36,0.00,OVC,SCT,0.00,300.0,WeatherDisplay:10.37,2013-04-05 17:20:00,
2013-04-05 12:25:00,56.3,29.0,30.06,ESE,112,10.2,15.2,35,0.00,OVC,SCT,0.00,300.0,WeatherDisplay:10.37,2013-04-05 17:25:00,
2013-04-05 12:30:00,56.3,29.0,30.03,East,90,9.7,13.8,35,0.00,OVC,SCT,0.00,200.0,WeatherDisplay:10.37,2013-04-05 17:30:00,
2013-04-05 12:35:00,56.5,29.1,30.03,WSW,248,9.7,11.8,35,0.00,OVC,SCT,0.00,300.0,WeatherDisplay:10.37,2013-04-05 17:35:00,
2013-04-05 12:40:00,57.0,29.6,30.03,ESE,112,7.6,9.2,35,0.00,OVC,SCT,0.00,300.0,WeatherDisplay:10.37,2013-04-05 17:40:00,
2013-04-05 12:45:00,57.2,29.8,30.00,SSE,158,8.1,10.4,35,0.00,OVC,SCT,0.00,200.0,WeatherDisplay:10.37,2013-04-05 17:45:00,
2013-04-05 12:51:00,57.2,29.8,30.00,ENE,68,8.7,11.5,35,0.00,OVC,SCT,0.00,300.0,WeatherDisplay:10.37,2013-04-05 17:51:00,
2013-04-05 12:56:00,57.6,30.1,30.00,ENE,68,10.0,11.5,35,0.00,OVC,SCT,0.00,300.0,WeatherDisplay:10.37,2013-04-05 17:56:00,
2013-04-05 13:02:00,58.3,30.0,30.00,SE,135,8.1,9.2,34,0.00,OVC,SCT,0.00,300.0,WeatherDisplay:10.37,2013-04-05 18:02:00,
2013-04-05 13:07:00,58.8,30.5,30.00,WSW,248,7.8,10.4,34,0.00,OVC,SCT,0.00,300.0,WeatherDisplay:10.37,2013-04-05 18:07:00,
2013-04-05 13:12:00,59.7,30.5,30.00,SSW,202,5.9,9.2,33,0.00,OVC,SCT,0.00,300.0,WeatherDisplay:10.37,2013-04-05 18:12:00,
2013-04-05 13:17:00,60.1,30.9,30.00,ESE,112,7.1,9.8,33,0.00,OVC,SCT,0.00,200.0,WeatherDisplay:10.37,2013-04-05 18:17:00,
2013-04-05 13:23:00,60.4,30.4,30.00,SSE,158,7.6,8.1,32,0.00,OVC,SCT,0.00,300.0,WeatherDisplay:10.37,2013-04-05 18:23:00,
2013-04-05 13:28:00,60.6,30.6,30.00,SSE,158,7.6,10.4,32,0.00,OVC,SCT,0.00,300.0,WeatherDisplay:10.37,2013-04-05 18:28:00,
2013-04-05 13:33:00,61.0,31.6,30.00,ESE,112,7.1,10.2,33,0.00,OVC,SCT,0.00,200.0,WeatherDisplay:10.37,2013-04-05 18:33:00,
2013-04-05 13:38:00,61.5,30.6,30.00,ESE,112,9.4,15.0,31,0.00,OVC,SCT,0.00,200.0,WeatherDisplay:10.37,2013-04-05 18:38:00,
2013-04-05 13:43:00,61.3,29.6,30.00,ESE,112,10.5,10.7,30,0.00,OVC,SCT,0.00,100.0,WeatherDisplay:10.37,2013-04-05 18:43:00,
2013-04-05 13:48:00,61.3,30.4,29.97,ESE,112,9.0,11.5,31,0.00,OVC,SCT,0.00,200.0,WeatherDisplay:10.37,2013-04-05 18:48:00,
2013-04-05 13:53:00,61.7,29.9,29.97,South,180,8.7,10.7,30,0.00,OVC,SCT,0.00,200.0,WeatherDisplay:10.37,2013-04-05 18:53:00,
2013-04-05 13:58:00,62.4,29.7,29.97,NE,45,7.8,10.0,29,0.00,OVC,SCT,0.00,200.0,WeatherDisplay:10.37,2013-04-05 18:58:00,
2013-04-05 14:03:00,62.2,29.6,29.97,ESE,112,9.7,11.5,29,0.00,OVC,SCT,0.00,200.0,WeatherDisplay:10.37,2013-04-05 19:03:00,
2013-04-05 14:09:00,62.8,30.0,29.97,East,90,8.5,12.7,29,0.00,OVC,SCT,0.00,200.0,WeatherDisplay:10.37,2013-04-05 19:09:00,
2013-04-05 14:14:00,63.0,30.2,29.97,ESE,112,7.4,19.6,29,0.00,OVC,SCT,0.00,200.0,WeatherDisplay:10.37,2013-04-05 19:14:00,
2013-04-05 14:19:00,63.7,30.8,29.94,SSE,158,9.0,13.8,29,0.00,OVC,SCT,0.00,200.0,WeatherDisplay:10.37,2013-04-05 19:19:00,
2013-04-05 14:24:00,64.0,30.2,29.94,South,180,10.9,12.7,28,0.00,OVC,SCT,0.00,200.0,WeatherDisplay:10.37,2013-04-05 19:24:00,
2013-04-05 14:29:00,65.1,31.2,29.94,South,180,7.6,10.7,28,0.00,OVC,SCT,0.00,200.0,WeatherDisplay:10.37,2013-04-05 19:29:00,
2013-04-05 14:34:00,65.1,30.3,29.94,SSE,158,9.7,12.7,27,0.00,OVC,SCT,0.00,200.0,WeatherDisplay:10.37,2013-04-05 19:34:00,
2013-04-05 14:40:00,64.8,30.0,29.94,South,180,10.7,17.6,27,0.00,OVC,SCT,0.00,100.0,WeatherDisplay:10.37,2013-04-05 19:40:00,
2013-04-05 14:45:00,64.4,29.6,29.94,SSE,167,8.0,18.0,27,0.00,OVC,SCT,0.00,100.0,WeatherDisplay:10.37,2013-04-05 19:45:00,
2013-04-05 14:50:00,64.4,29.7,29.94,SSW,202,9.2,16.1,27,0.00,OVC,SCT,0.00,100.0,WeatherDisplay:10.37,2013-04-05 19:50:00,
2013-04-05 14:55:00,64.4,30.6,29.94,SSW,202,8.1,10.0,28,0.00,OVC,SCT,0.00,100.0,WeatherDisplay:10.37,2013-04-05 19:55:00,
2013-04-05 15:00:00,64.4,29.7,29.91,SSW,202,9.7,17.3,27,0.00,OVC,SCT,0.00,100.0,WeatherDisplay:10.37,2013-04-05 20:00:00,
2013-04-05 15:05:00,64.4,30.6,29.91,East,90,6.7,10.4,28,0.00,OVC,SCT,0.00,100.0,WeatherDisplay:10.37,2013-04-05 20:05:00,
2013-04-05 15:10:00,64.9,31.0,29.91,East,90,7.8,8.1,28,0.00,OVC,SCT,0.00,100.0,WeatherDisplay:10.37,2013-04-05 20:10:00,
2013-04-05 15:16:00,64.8,30.0,29.88,SSW,202,10.2,11.5,27,0.00,OVC,SCT,0.00,100.0,WeatherDisplay:10.37,2013-04-05 20:16:00,
2013-04-05 15:21:00,64.8,30.9,29.88,SE,135,5.9,10.4,28,0.00,OVC,SCT,0.00,100.0,WeatherDisplay:10.37,2013-04-05 20:21:00,
2013-04-05 15:27:00,64.9,31.0,29.88,SSW,202,8.7,10.4,28,0.00,OVC,SCT,0.00,100.0,WeatherDisplay:10.37,2013-04-05 20:27:00,
2013-04-05 15:32:00,65.1,30.3,29.88,SSE,158,12.1,12.7,27,0.00,OVC,SCT,0.00,100.0,WeatherDisplay:10.37,2013-04-05 20:32:00,
2013-04-05 15:37:00,65.3,30.4,29.88,SSE,158,9.4,13.8,27,0.00,OVC,SCT,0.00,0.0,WeatherDisplay:10.37,2013-04-05 20:37:00,
2013-04-05 15:42:00,65.5,31.5,29.88,South,180,5.9,11.5,28,0.00,OVC,SCT,0.00,100.0,WeatherDisplay:10.37,2013-04-05 20:42:00,
2013-04-05 15:47:00,65.7,30.7,29.85,SSE,158,12.3,18.7,27,0.00,OVC,SCT,0.00,100.0,WeatherDisplay:10.37,2013-04-05 20:47:00,
2013-04-05 15:52:00,66.0,31.1,29.85,SSW,202,8.1,11.5,27,0.00,OVC,SCT,0.00,100.0,WeatherDisplay:10.37,2013-04-05 20:52:00,
2013-04-05 15:57:00,66.6,32.4,29.85,SW,225,5.4,11.5,28,0.00,OVC,SCT,0.00,100.0,WeatherDisplay:10.37,2013-04-05 20:57:00,
2013-04-05 16:02:00,66.7,31.7,29.83,ESE,112,8.7,13.0,27,0.00,OVC,SCT,0.00,100.0,WeatherDisplay:10.37,2013-04-05 21:02:00,
2013-04-05 16:08:00,66.9,31.8,29.83,SSW,202,7.8,10.4,27,0.00,OVC,SCT,0.00,0.0,WeatherDisplay:10.37,2013-04-05 21:08:00,
2013-04-05 16:13:00,66.9,30.9,29.83,SW,225,9.4,13.8,26,0.00,OVC,SCT,0.00,0.0,WeatherDisplay:10.37,2013-04-05 21:13:00,
2013-04-05 16:18:00,66.9,30.9,29.83,SSE,158,7.8,12.7,26,0.00,OVC,SCT,0.00,0.0,WeatherDisplay:10.37,2013-04-05 21:18:00,
2013-04-05 16:23:00,67.1,31.0,29.83,SSW,202,5.9,5.9,26,0.00,OVC,SCT,0.00,0.0,WeatherDisplay:10.37,2013-04-05 21:23:00,
2013-04-05 16:28:00,67.3,31.2,29.83,SSW,202,9.2,10.4,26,0.00,OVC,SCT,0.00,0.0,WeatherDisplay:10.37,2013-04-05 21:28:00,
2013-04-05 16:33:00,67.5,30.4,29.83,WNW,292,6.7,12.8,25,0.00,OVC,SCT,0.00,0.0,WeatherDisplay:10.37,2013-04-05 21:33:00,
2013-04-05 16:39:00,67.6,30.5,29.83,SSE,158,8.7,11.5,25,0.00,OVC,SCT,0.00,0.0,WeatherDisplay:10.37,2013-04-05 21:39:00,
2013-04-05 16:44:00,68.0,30.8,29.80,SSE,158,6.4,10.4,25,0.00,OVC,SCT,0.00,0.0,WeatherDisplay:10.37,2013-04-05 21:44:00,
2013-04-05 16:49:00,68.2,30.0,29.80,SE,135,9.4,17.3,24,0.00,OVC,SCT,0.00,0.0,WeatherDisplay:10.37,2013-04-05 21:49:00,
2013-04-05 16:55:00,68.4,30.1,29.80,South,180,10.2,12.8,24,0.00,OVC,SCT,0.00,0.0,WeatherDisplay:10.37,2013-04-05 21:55:00,
2013-04-05 17:00:00,68.4,30.1,29.77,SSW,202,10.7,15.0,24,0.00,OVC,SCT,0.00,0.0,WeatherDisplay:10.37,2013-04-05 22:00:00,
2013-04-05 17:06:00,68.4,30.1,29.77,SSE,158,10.7,15.4,24,0.00,OVC,SCT,0.00,0.0,WeatherDisplay:10.37,2013-04-05 22:06:00,
2013-04-05 17:11:00,68.2,30.0,29.77,SSW,202,9.4,13.8,24,0.00,OVC,SCT,0.00,0.0,WeatherDisplay:10.37,2013-04-05 22:11:00,
2013-04-05 17:16:00,68.2,30.0,29.77,South,180,10.0,10.5,24,0.00,OVC,SCT,0.00,0.0,WeatherDisplay:10.37,2013-04-05 22:16:00,
2013-04-05 17:21:00,68.0,29.8,29.77,South,180,7.6,13.8,24,0.00,OVC,SCT,0.00,0.0,WeatherDisplay:10.37,2013-04-05 22:21:00,
2013-04-05 17:27:00,68.0,29.8,29.77,SSE,158,7.1,10.4,24,0.00,OVC,SCT,0.00,0.0,WeatherDisplay:10.37,2013-04-05 22:27:00,
2013-04-05 17:32:00,67.8,30.7,29.77,SSE,158,4.9,12.7,25,0.00,OVC,SCT,0.00,0.0,WeatherDisplay:10.37,2013-04-05 22:32:00,
2013-04-05 17:37:00,68.0,29.8,29.77,ESE,112,8.1,11.5,24,0.00,OVC,SCT,0.00,0.0,WeatherDisplay:10.37,2013-04-05 22:37:00,
2013-04-05 17:42:00,68.0,29.8,29.77,ESE,112,5.6,11.5,24,0.00,OVC,SCT,0.00,0.0,WeatherDisplay:10.37,2013-04-05 22:42:00,
2013-04-05 17:48:00,68.0,29.8,29.74,SSE,158,6.0,10.4,24,0.00,OVC,SCT,0.00,0.0,WeatherDisplay:10.37,2013-04-05 22:48:00,
2013-04-05 17:53:00,68.2,30.0,29.74,South,180,7.4,9.2,24,0.00,OVC,SCT,0.00,0.0,WeatherDisplay:10.37,2013-04-05 22:53:00,
2013-04-05 17:58:00,68.4,29.1,29.74,SSE,158,6.7,12.7,23,0.00,OVC,SCT,0.00,0.0,WeatherDisplay:10.37,2013-04-05 22:58:00,
2013-04-05 18:03:00,68.5,29.2,29.77,ENE,68,7.4,9.7,23,0.00,OVC,SCT,0.00,0.0,WeatherDisplay:10.37,2013-04-05 23:03:00,
2013-04-05 18:09:00,68.5,29.2,29.77,East,90,6.4,8.1,23,0.00,OVC,SCT,0.00,0.0,WeatherDisplay:10.37,2013-04-05 23:09:00,
2013-04-05 18:14:00,68.4,29.1,29.77,SSW,202,6.9,10.4,23,0.00,OVC,SCT,0.00,0.0,WeatherDisplay:10.37,2013-04-05 23:14:00,
2013-04-05 18:19:00,68.4,29.1,29.77,South,180,7.4,10.4,23,0.00,OVC,SCT,0.00,0.0,WeatherDisplay:10.37,2013-04-05 23:19:00,
2013-04-05 18:25:00,68.2,28.9,29.77,ESE,112,6.0,10.4,23,0.00,OVC,SCT,0.00,0.0,WeatherDisplay:10.37,2013-04-05 23:25:00,
2013-04-05 18:30:00,68.2,28.9,29.74,South,180,7.1,9.2,23,0.00,OVC,SCT,0.00,0.0,WeatherDisplay:10.37,2013-04-05 23:30:00,
2013-04-05 18:35:00,68.2,28.9,29.74,South,180,6.9,7.6,23,0.00,OVC,SCT,0.00,0.0,WeatherDisplay:10.37,2013-04-05 23:35:00,
2013-04-05 18:40:00,68.2,28.9,29.74,SSW,202,5.4,6.2,23,0.00,OVC,SCT,0.00,0.0,WeatherDisplay:10.37,2013-04-05 23:40:00,
2013-04-05 18:45:00,68.0,28.8,29.77,SE,135,5.6,8.1,23,0.00,OVC,SCT,0.00,0.0,WeatherDisplay:10.37,2013-04-05 23:45:00,
2013-04-05 18:50:00,68.0,28.8,29.77,SSE,158,6.7,10.4,23,0.00,OVC,SCT,0.00,0.0,WeatherDisplay:10.37,2013-04-05 23:50:00,
2013-04-05 18:55:00,68.0,27.7,29.77,SSE,158,9.7,12.7,22,0.00,OVC,SCT,0.00,0.0,WeatherDisplay:10.37,2013-04-05 23:55:00,
2013-04-05 19:00:00,68.0,27.7,29.77,SSW,202,9.2,10.4,22,0.00,OVC,SCT,0.00,0.0,WeatherDisplay:10.37,2013-04-06 00:00:00,
2013-04-05 19:06:00,68.0,27.7,29.77,SSE,158,8.7,12.7,22,0.00,BKN,SCT,0.00,0.0,WeatherDisplay:10.37,2013-04-06 00:06:00,
2013-04-05 19:11:00,67.8,28.6,29.77,SSE,158,10.0,10.4,23,0.00,BKN,SCT,0.00,0.0,WeatherDisplay:10.37,2013-04-06 00:11:00,
2013-04-05 19:16:00,67.5,28.3,29.77,SSW,202,6.9,10.4,23,0.00,BKN,SCT,0.00,0.0,WeatherDisplay:10.37,2013-04-06 00:16:00,
2013-04-05 19:22:00,67.3,28.2,29.77,SSE,158,9.8,15.0,23,0.00,BKN,SCT,0.00,0.0,WeatherDisplay:10.37,2013-04-06 00:22:00,
2013-04-05 19:27:00,67.1,28.0,29.77,South,180,6.9,8.5,23,0.00,BKN,SCT,0.00,0.0,WeatherDisplay:10.37,2013-04-06 00:27:00,
2013-04-05 19:32:00,66.9,27.9,29.77,SSE,158,5.9,8.1,23,0.00,BKN,SCT,0.00,0.0,WeatherDisplay:10.37,2013-04-06 00:32:00,
2013-04-05 19:37:00,66.6,27.6,29.77,SSW,202,5.9,9.2,23,0.00,BKN,SCT,0.00,35.5,WeatherDisplay:10.37,2013-04-06 00:37:00,
2013-04-05 19:42:00,66.4,27.4,29.77,South,180,6.0,12.1,23,0.00,BKN,SCT,0.00,0.0,WeatherDisplay:10.37,2013-04-06 00:42:00,
2013-04-05 19:47:00,66.4,27.4,29.74,SSW,202,8.5,10.5,23,0.00,BKN,SCT,0.00,0.0,WeatherDisplay:10.37,2013-04-06 00:47:00,
2013-04-05 19:52:00,66.0,27.1,29.74,SSE,158,7.4,13.8,23,0.00,SCT,,0.00,0.0,WeatherDisplay:10.37,2013-04-06 00:52:00,
2013-04-05 19:57:00,65.7,26.8,29.74,SSW,202,6.7,10.5,23,0.00,SCT,,0.00,0.0,WeatherDisplay:10.37,2013-04-06 00:57:00,
2013-04-05 20:02:00,65.5,26.7,29.74,ESE,112,7.1,11.5,23,0.00,SCT,,0.00,0.0,WeatherDisplay:10.37,2013-04-06 01:02:00,
2013-04-05 20:07:00,65.3,26.5,29.74,SSE,158,6.4,9.2,23,0.00,SCT,,0.00,0.0,WeatherDisplay:10.37,2013-04-06 01:07:00,
2013-04-05 20:12:00,65.1,26.4,29.74,South,180,7.4,10.4,23,0.00,SCT,,0.00,0.0,WeatherDisplay:10.37,2013-04-06 01:12:00,
2013-04-05 20:18:00,64.9,26.2,29.74,SSW,202,7.1,8.1,23,0.00,SCT,,0.00,0.0,WeatherDisplay:10.37,2013-04-06 01:18:00,
2013-04-05 20:23:00,64.6,26.9,29.74,ESE,112,4.3,4.9,24,0.00,SCT,,0.00,0.0,WeatherDisplay:10.37,2013-04-06 01:23:00,
2013-04-05 20:28:00,64.2,26.6,29.74,SE,135,6.4,9.2,24,0.00,SCT,,0.00,0.0,WeatherDisplay:10.37,2013-04-06 01:28:00,
2013-04-05 20:33:00,63.9,26.3,29.74,SSW,202,5.6,8.1,24,0.00,SCT,,0.00,0.0,WeatherDisplay:10.37,2013-04-06 01:33:00,
2013-04-05 20:38:00,63.5,26.0,29.74,SSW,202,6.0,10.4,24,0.00,SCT,,0.00,0.0,WeatherDisplay:10.37,2013-04-06 01:38:00,
2013-04-05 20:43:00,63.3,25.9,29.74,South,180,5.9,8.1,24,0.00,SCT,,0.00,0.0,WeatherDisplay:10.37,2013-04-06 01:43:00,
2013-04-05 20:48:00,63.1,26.7,29.74,SSE,158,4.3,12.7,25,0.00,SCT,,0.00,0.0,WeatherDisplay:10.37,2013-04-06 01:48:00,
2013-04-05 20:54:00,62.8,26.4,29.74,South,180,4.0,8.1,25,0.00,SCT,,0.00,0.0,WeatherDisplay:10.37,2013-04-06 01:54:00,
2013-04-05 20:59:00,62.6,26.2,29.74,SSW,202,5.6,8.1,25,0.00,SCT,,0.00,0.0,WeatherDisplay:10.37,2013-04-06 01:59:00,
2013-04-05 21:04:00,62.6,26.2,29.74,SSE,158,4.7,11.8,25,0.00,SCT,,0.00,0.0,WeatherDisplay:10.37,2013-04-06 02:04:00,
2013-04-05 21:09:00,62.4,27.0,29.74,SE,135,6.7,10.4,26,0.00,SCT,,0.00,0.0,WeatherDisplay:10.37,2013-04-06 02:09:00,
2013-04-05 21:14:00,62.1,26.7,29.74,WSW,248,6.0,9.2,26,0.00,SCT,,0.00,0.0,WeatherDisplay:10.37,2013-04-06 02:14:00,
2013-04-05 21:19:00,62.2,26.9,29.74,SSE,158,6.7,10.4,26,0.00,SCT,,0.00,0.0,WeatherDisplay:10.37,2013-04-06 02:19:00,
2013-04-05 21:24:00,62.1,26.7,29.74,SSE,158,6.9,9.2,26,0.00,SCT,,0.00,0.0,WeatherDisplay:10.37,2013-04-06 02:24:00,
2013-04-05 21:29:00,61.9,26.6,29.71,South,180,7.8,9.2,26,0.00,SCT,,0.00,0.0,WeatherDisplay:10.37,2013-04-06 02:29:00,
2013-04-05 21:34:00,61.9,26.6,29.71,WSW,248,6.7,15.0,26,0.00,SCT,,0.00,0.0,WeatherDisplay:10.37,2013-04-06 02:34:00,
2013-04-05 21:39:00,61.7,26.4,29.71,South,180,5.4,11.5,26,0.00,SCT,,0.00,0.0,WeatherDisplay:10.37,2013-04-06 02:39:00,
2013-04-05 21:45:00,61.3,26.1,29.74,South,180,6.7,10.4,26,0.00,SCT,,0.00,0.0,WeatherDisplay:10.37,2013-04-06 02:45:00,
2013-04-05 21:50:00,61.0,26.7,29.74,ESE,112,6.7,11.5,27,0.00,SCT,,0.00,0.0,WeatherDisplay:10.37,2013-04-06 02:50:00,
2013-04-05 21:55:00,61.0,26.7,29.74,SW,225,7.1,10.7,27,0.00,SCT,,0.00,0.0,WeatherDisplay:10.37,2013-04-06 02:55:00,
2013-04-05 22:00:00,61.0,26.7,29.74,ESE,112,9.4,15.0,27,0.00,SCT,,0.00,0.0,WeatherDisplay:10.37,2013-04-06 03:00:00,
2013-04-05 22:05:00,61.0,26.7,29.74,South,180,7.6,13.8,27,0.00,SCT,,0.00,0.0,WeatherDisplay:10.37,2013-04-06 03:05:00,
2013-04-05 22:10:00,61.0,26.7,29.74,SSW,202,8.5,10.4,27,0.00,SCT,,0.00,0.0,WeatherDisplay:10.37,2013-04-06 03:10:00,
2013-04-05 22:16:00,60.8,26.6,29.71,South,180,6.9,13.5,27,0.00,SCT,,0.00,0.0,WeatherDisplay:10.37,2013-04-06 03:16:00,
2013-04-05 22:21:00,60.6,27.3,29.71,SSE,158,6.0,9.2,28,0.00,SCT,,0.00,0.0,WeatherDisplay:10.37,2013-04-06 03:21:00,
2013-04-05 22:26:00,60.4,27.1,29.71,SSE,158,9.2,15.0,28,0.00,SCT,,0.00,0.0,WeatherDisplay:10.37,2013-04-06 03:26:00,
2013-04-05 22:31:00,60.4,27.1,29.71,SSW,202,7.8,12.8,28,0.00,SCT,,0.00,0.0,WeatherDisplay:10.37,2013-04-06 03:31:00,
2013-04-05 22:36:00,60.3,27.8,29.71,SSW,202,7.6,9.2,29,0.00,SCT,,0.00,0.0,WeatherDisplay:10.37,2013-04-06 03:36:00,
2013-04-05 22:42:00,60.3,27.8,29.71,SSW,202,9.2,13.8,29,0.00,SCT,,0.00,0.0,WeatherDisplay:10.37,2013-04-06 03:42:00,
2013-04-05 22:47:00,59.9,27.5,29.71,South,180,4.7,9.8,29,0.00,SCT,,0.00,0.0,WeatherDisplay:10.37,2013-04-06 03:47:00,
2013-04-05 22:52:00,59.9,27.5,29.71,ESE,112,6.9,8.1,29,0.00,SCT,,0.00,0.0,WeatherDisplay:10.37,2013-04-06 03:52:00,
2013-04-05 22:57:00,59.7,28.2,29.71,ENE,68,6.7,10.7,30,0.00,SCT,,0.00,0.0,WeatherDisplay:10.37,2013-04-06 03:57:00,
2013-04-05 23:00:00,59.7,28.2,29.71,ENE,68,6.2,10.4,30,0.00,SCT,,0.00,0.0,WeatherDisplay:10.37,2013-04-06 04:00:00,
2013-04-05 23:02:00,59.5,28.0,29.71,SSW,202,4.9,8.1,30,0.00,SCT,,0.00,0.0,WeatherDisplay:10.37,2013-04-06 04:02:00,
2013-04-05 23:08:00,59.5,28.0,29.71,WSW,248,5.9,9.2,30,0.00,SCT,,0.00,0.0,WeatherDisplay:10.37,2013-04-06 04:08:00,
2013-04-05 23:13:00,59.4,27.9,29.71,SW,225,5.4,5.9,30,0.00,SCT,,0.00,0.0,WeatherDisplay:10.37,2013-04-06 04:13:00,
2013-04-05 23:18:00,59.2,28.5,29.71,ESE,112,3.8,8.1,31,0.00,SCT,,0.00,0.0,WeatherDisplay:10.37,2013-04-06 04:18:00,
2013-04-05 23:23:00,59.2,28.5,29.71,SSW,202,5.9,13.0,31,0.00,SCT,,0.00,0.0,WeatherDisplay:10.37,2013-04-06 04:23:00,
2013-04-05 23:28:00,59.0,29.2,29.71,SSE,158,7.4,9.2,32,0.00,SCT,,0.00,0.0,WeatherDisplay:10.37,2013-04-06 04:28:00,
2013-04-05 23:33:00,58.8,29.7,29.68,ESE,112,7.1,8.1,33,0.00,SCT,,0.00,0.0,WeatherDisplay:10.37,2013-04-06 04:33:00,
2013-04-05 23:39:00,58.8,30.5,29.68,SSW,202,6.7,15.0,34,0.00,SCT,,0.00,0.0,WeatherDisplay:10.37,2013-04-06 04:39:00,
2013-04-05 23:44:00,58.6,30.3,29.71,SSE,158,5.4,9.2,34,0.00,SCT,,0.00,0.0,WeatherDisplay:10.37,2013-04-06 04:44:00,
2013-04-05 23:49:00,58.5,30.9,29.71,SSE,158,4.7,8.1,35,0.00,SCT,,0.00,0.0,WeatherDisplay:10.37,2013-04-06 04:49:00,
2013-04-05 23:54:00,58.5,30.9,29.71,SSE,158,6.2,9.0,35,0.00,SCT,,0.00,0.0,WeatherDisplay:10.37,2013-04-06 04:54:00,